STARLINK-2204 (47418 NORAD) Tracking and Keplerian Element Data

This shows tracking and keplerian element data for the satellite.

Feedback or suggestion? Click here.




ElementValue
Catalog47418
NameSTARLINK-2204
Epoch Orbit1264
Epoch Day106.14211446
Epoch Year2021
RAAN168.6905
Inclination97.4988
Eccentricity0.0010948
Argument of Perigee356.6203
Mean Anonmoly3.4953
Mean Motion15.14322702
Decay Rate-2.5E-06
L11 47418U 21006F 21106.14211446 -.00000250 00000-0 -10060-4 0 9996
L22 47418 97.4988 168.6905 0010948 356.6203 3.4953 15.14322702 12647

Live tracking and technical data element details for STARLINK-2204 (NORAD 47418). STARLINK-2204 can be tracked NOW for your location showing map with azimuth and elevation plus other details from your city location.

Track the satellite on the map from your city or location and see movement details for azimuth, elevation, latitude, longitude, range, height, and movement on the map or in text.







IsCatalogInMostPopularTable: catalog: 47418, numindb: 14
Update: records affected: 1



GetName: 47418 STARLINK-2204

Hit Count: updated at: Fri, 16 Apr 2021 12:02:24 GMT